[Iaude] MPEC V07: 2023 VA [a=1.52,e=0.43,i=3.0,H=28.3]
    mpec at marsden.cfa.harvard.edu 
    mpec at marsden.cfa.harvard.edu
       
    Wed Nov  1 16:24:39 EDT 2023
    
    
  
M.P.E.C. 2023-V07                              Issued 2023 November 1, 20:13 UT
     The Minor Planet Electronic Circulars contain information on unusual
         minor planets, routine data on comets and natural satellites,
         and occasional editorial announcements.  They are published
    on behalf of Division F of the International Astronomical Union by the
          Minor Planet Center, Smithsonian Astrophysical Observatory,
                          Cambridge, MA 02138, U.S.A.
			  
             Prepared using the Tamkin Foundation Computer Network
                              MPC at CFA.HARVARD.EDU
            URL https://www.minorplanetcenter.net/    ISSN 1523-6714
                                    2023 VA                                     
Observations:
     K23V00A 1C2023 11 01.31495401 24 33.962+00 09 35.89         17.78GVEV007703
     K23V00A 1C2023 11 01.32011401 24 30.377+00 10 14.30         17.72GVEV007703
     K23V00A 1C2023 11 01.32526701 24 26.809+00 10 52.93         17.81GVEV007703
     K23V00A 1C2023 11 01.33042401 24 23.296+00 11 31.92         17.71GVEV007703
     K23V00A 1C2023 11 01.34632201 24 12.244+00 13 35.90         17.70GVEV007703
     K23V00A 1C2023 11 01.34679101 24 11.898+00 13 39.32         17.91GVEV007703
     K23V00A 1C2023 11 01.34813901 24 11.005+00 13 50.12         17.58GVEV007703
     K23V00A 1C2023 11 01.34860801 24 10.706+00 13 53.80         17.58GVEV007703
     K23V00A*KC2023 11 01.39652901 23 39.102+00 20 34.15         17.42GVEV007I52
     K23V00A KC2023 11 01.39693401 23 38.861+00 20 37.82         17.72GVEV007I52
     K23V00A KC2023 11 01.39734001 23 38.602+00 20 41.50         17.70GVEV007I52
     K23V00A KC2023 11 01.39774701 23 38.350+00 20 45.02         17.63GVEV007I52
     K23V00A KC2023 11 01.75051 01 25 23.79 +01 40 58.9          16.6 VqEV007L04
     K23V00A KC2023 11 01.75125 01 25 24.03 +01 40 33.4          16.6 VqEV007M38
     K23V00A KC2023 11 01.75220 01 25 22.45 +01 41 42.5          16.5 VqEV007L04
     K23V00A KC2023 11 01.75390 01 25 21.10 +01 42 26.0          16.5 VqEV007L04
     K23V00A KC2023 11 01.75404 01 25 21.90 +01 41 45.3          16.5 VqEV007M38
     K23V00A KC2023 11 01.75642 01 25 19.03 +01 43 31.9          16.4 VqEV007L04
     K23V00A KC2023 11 01.75840 01 25 17.36 +01 44 23.8          16.4 VqEV007L04
     K23V00A KC2023 11 01.76037 01 25 15.69 +01 45 15.9          16.2 VqEV007L04
     K23V00A KC2023 11 01.76241 01 25 13.93 +01 46 10.2          16.3 VqEV007L04
     K23V00A KC2023 11 01.76453 01 25 12.05 +01 47 07.2          16.2 VqEV007L04
     K23V00A KC2023 11 01.76664 01 25 10.14 +01 48 04.7          16.3 VqEV007L04
Observer details:
703 Catalina Sky Survey.  Observer J. K. Hogan.  Measurers E. C. Beshore, D.
    Fay, J. B. Fazekas, D. C. Fuls, A. R. Gibbs, A. D. Grauer, H. Groeller, J.
    K. Hogan, R. A. Kowalski, S. M. Larson, G. J. Leonard, D. Rankin, R. L.
    Seaman, F. C. Shelly, K. W. Wierzchos.  0.68-m Schmidt + 10K CCD.
I52 Steward Observatory, Mt. Lemmon Station.  Observer R. A. Kowalski.
    Measurers E. C. Beshore, D. Fay, J. B. Fazekas, D. C. Fuls, A. R. Gibbs,
    A. D. Grauer, H. Groeller, J. K. Hogan, R. A. Kowalski, S. M. Larson, G.
    J. Leonard, D. Rankin, R. L. Seaman, F. C. Shelly, K. W. Wierzchos.  1.0-m
    prime focus + CCD.
L04 ROASTERR-1 Observatory, Cluj-Napoca.  Observer L. Hudin.  0.3-m f/5
    reflector + CCD.
M38 Harsona Observatory, Nyiregyhaza.  Observer T. Elek.  0.20-m f/3 reflector
    + CCD.
Orbital elements:
2023 VA                                                  Earth MOID = 0.0001 AU
Epoch 2023 Sept. 13.0 TT = JDT 2460200.5                Veres                   
M 311.68899              (2000.0)            P               Q                  
n   0.52563507     Peri.   55.88551     -0.08554310     -0.99579731             
a   1.5205936      Node    39.06220     +0.89617255     -0.09124923             
e   0.4335254      Incl.    2.97560     +0.43538161     -0.00782883             
P   1.88           H   28.35          G   0.15           U   8                  
Residuals in seconds of arc
231101 703  0.0   0.1-    231101 I52  0.1-  0.1-    231101 M38  0.1+  0.0
231101 703  0.1-  0.0     231101 I52  0.1+  0.0     231101 L04  0.0   0.3+
231101 703  0.0   0.1-    231101 I52  0.0   0.1+    231101 L04  0.2-  0.3+
231101 703  0.9+  0.3-    231101 I52  0.1+  0.0     231101 L04  0.0   0.2+
231101 703  0.3-  0.2+    231101 L04  0.2-  0.1-    231101 L04  0.1+  0.1+
231101 703  0.7-  0.0     231101 M38  0.0   0.4-    231101 L04  0.1+  0.0
231101 703  0.2-  0.1+    231101 L04  0.2-  0.3+    231101 L04  0.1-  0.2+
231101 703  0.1+  0.0     231101 L04  0.0   0.0
Ephemeris:
2023 VA                  a,e,i = 1.52, 0.43, 3                   q = 0.8614
Date    TT    R. A. (2000) Decl.     Delta      r    Elong.  Phase     V
2023 10 02    01 27 04.9 -00 27 37   0.1931  1.1889   165.3    12.3    25.9
...
2023 10 17    01 27 43.9 -01 10 43   0.09485 1.0904   169.8     9.3    24.0
...
2023 10 25    01 26 55.6 -01 23 28   0.04742 1.0405   165.0    14.3    22.6
...
2023 10 31    01 26 07.2 -00 51 02   0.01288 1.0051   160.4    19.4    19.9
2023 11 01    01 25 33.5 -00 08 27   0.0071440.9994   159.9    19.9    18.6
2023 11 02    01 20 25.8 +06 25 21   0.0013970.9938   161.9    18.1    15.0
...
2023 11 08    13 15 53.1 -12 50 35   0.03316 0.9605    23.0   156.2    30.7
...
2023 11 16    13 18 02.7 -13 10 34   0.07992 0.9211    30.4   147.1    30.6
...
2023 12 01    13 29 11.1 -13 57 24   0.1732  0.8666    42.6   129.6    29.9
M. P. C. Staff               (C) Copyright 2023 MPC           M.P.E.C. 2023-V07
    
    
More information about the Iaude
mailing list